When you browse on this site, cookies collect data to enhance your experience and personalize the content and advertising you see.
Visit our Privacy Policy to learn more. By continuing to use the site, you agree to this use of cookies and data.
  • In Germany
  • List of Countries
  • For 7 days
  • Water Temperature
  • Weather Map
  • Weather Widgets
  • user-avatar
    Login

    Hourly Weather Wien

    Today, 5 June, Friday

    Time Temperature Precipitation Wind Pressure Humidity
    00:00 +17°C° 0.2 mm 3 mps 729 mmHg 77%
    01:00 +17°C° 0 mm 4 mps 729 mmHg 79%
    02:00 +16°C° 0.1 mm 3 mps 729 mmHg 81%
    03:00 +16°C° 0.1 mm 2 mps 729 mmHg 83%
    04:00 +16°C° 0.1 mm 1 mps 728 mmHg 85%
    05:00 +15°C° 2.1 mm 2 mps 729 mmHg 87%
    06:00 +14°C° 2.1 mm 3 mps 729 mmHg 88%
    07:00 +13°C° 2.1 mm 4 mps 729 mmHg 90%
    08:00 +13°C° 0.8 mm 4 mps 730 mmHg 89%
    09:00 +13°C° 0.8 mm 4 mps 730 mmHg 87%
    10:00 +14°C° 0.8 mm 4 mps 730 mmHg 86%
    11:00 +14°C° 0.2 mm 3 mps 731 mmHg 84%
    12:00 +16°C° 0.2 mm 2 mps 731 mmHg 82%
    13:00 +16°C° 0.2 mm 1 mps 732 mmHg 80%
    14:00 +16°C° 0.1 mm 1 mps 732 mmHg 79%
    15:00 +18°C° 0.1 mm 1 mps 732 mmHg 77%
    16:00 +18°C° 0.1 mm 1 mps 732 mmHg 76%
    17:00 +18°C° 0 mm 1 mps 732 mmHg 76%
    18:00 +16°C° 0 mm 1 mps 732 mmHg 77%
    19:00 +16°C° 0 mm 1 mps 732 mmHg 77%
    20:00 +15°C° 0 mm 1 mps 733 mmHg 79%
    21:00 +15°C° 0 mm 1 mps 734 mmHg 80%
    22:00 +14°C° 0 mm 1 mps 735 mmHg 82%
    23:00 +13°C° 0 mm 1 mps 735 mmHg 82%

    Tomorrow, 6 June, Saturday

    Time Temperature Precipitation Wind Pressure Humidity
    00:00 +13°C° 0 mm 1 mps 735 mmHg 82%
    01:00 +13°C° 0 mm 1 mps 736 mmHg 82%
    02:00 +13°C° 0 mm 1 mps 736 mmHg 82%
    03:00 +13°C° 0 mm 1 mps 736 mmHg 82%
    04:00 +12°C° 0 mm 1 mps 737 mmHg 82%
    05:00 +14°C° 0 mm 1 mps 737 mmHg 78%
    06:00 +15°C° 0 mm 1 mps 737 mmHg 74%
    07:00 +18°C° 0 mm 1 mps 738 mmHg 70%
    08:00 +18°C° 0 mm 2 mps 738 mmHg 66%
    09:00 +20°C° 0 mm 3 mps 738 mmHg 62%
    10:00 +21°C° 0 mm 4 mps 738 mmHg 58%
    11:00 +21°C° 0 mm 5 mps 737 mmHg 57%
    12:00 +22°C° 0 mm 5 mps 737 mmHg 56%
    13:00 +23°C° 0 mm 6 mps 736 mmHg 55%
    14:00 +23°C° 0 mm 5 mps 736 mmHg 55%
    15:00 +23°C° 0 mm 5 mps 736 mmHg 56%
    16:00 +25°C° 0 mm 5 mps 735 mmHg 57%
    17:00 +23°C° 0 mm 4 mps 735 mmHg 62%
    18:00 +22°C° 0 mm 3 mps 735 mmHg 67%
    19:00 +21°C° 0 mm 3 mps 735 mmHg 72%
    20:00 +20°C° 0.2 mm 3 mps 735 mmHg 77%
    21:00 +19°C° 0.2 mm 2 mps 736 mmHg 81%
    22:00 +18°C° 0.2 mm 2 mps 736 mmHg 86%
    23:00 +17°C° 0.3 mm 2 mps 736 mmHg 87%

    Day after tomorrow, 7 June, Sunday

    Time Temperature Precipitation Wind Pressure Humidity
    00:00 +18°C° 0.3 mm 1 mps 736 mmHg 88%
    01:00 +16°C° 0.3 mm 1 mps 736 mmHg 90%
    02:00 +16°C° 0.1 mm 1 mps 736 mmHg 90%
    03:00 +15°C° 0.1 mm 2 mps 736 mmHg 91%
    04:00 +15°C° 0.1 mm 2 mps 736 mmHg 92%
    05:00 +16°C° 0 mm 2 mps 736 mmHg 89%
    06:00 +17°C° 0 mm 2 mps 736 mmHg 85%
    07:00 +18°C° 0 mm 2 mps 736 mmHg 82%
    08:00 +19°C° 0 mm 2 mps 736 mmHg 77%
    09:00 +20°C° 0 mm 2 mps 736 mmHg 73%
    10:00 +21°C° 0 mm 2 mps 737 mmHg 68%
    11:00 +21°C° 0.1 mm 2 mps 737 mmHg 68%
    12:00 +22°C° 0.1 mm 3 mps 737 mmHg 68%
    13:00 +22°C° 0.1 mm 4 mps 737 mmHg 68%
    14:00 +22°C° 0.1 mm 4 mps 737 mmHg 68%
    15:00 +21°C° 0.1 mm 4 mps 737 mmHg 68%
    16:00 +21°C° 0.1 mm 4 mps 737 mmHg 67%
    17:00 +20°C° 0 mm 4 mps 737 mmHg 71%
    18:00 +19°C° 0 mm 4 mps 737 mmHg 74%
    19:00 +18°C° 0 mm 4 mps 738 mmHg 77%
    20:00 +17°C° 0 mm 4 mps 738 mmHg 78%
    21:00 +15°C° 0 mm 4 mps 738 mmHg 80%
    22:00 +15°C° 0 mm 4 mps 738 mmHg 82%
    23:00 +15°C° 0 mm 4 mps 738 mmHg 81%

    8 June, Monday

    Time Temperature Precipitation Wind Pressure Humidity
    00:00 +14°C° 0 mm 4 mps 738 mmHg 81%
    01:00 +14°C° 0 mm 4 mps 738 mmHg 81%
    02:00 +14°C° 0.1 mm 3 mps 738 mmHg 82%
    03:00 +14°C° 0.1 mm 3 mps 738 mmHg 83%
    04:00 +14°C° 0.1 mm 3 mps 737 mmHg 84%
    05:00 +14°C° 0 mm 3 mps 737 mmHg 85%
    06:00 +14°C° 0 mm 3 mps 738 mmHg 86%
    07:00 +15°C° 0 mm 2 mps 738 mmHg 87%
    08:00 +15°C° 0 mm 2 mps 738 mmHg 86%
    09:00 +16°C° 0 mm 2 mps 738 mmHg 84%
    10:00 +16°C° 0 mm 3 mps 738 mmHg 82%
    11:00 +18°C° 0 mm 3 mps 738 mmHg 78%
    12:00 +19°C° 0 mm 3 mps 738 mmHg 74%
    13:00 +20°C° 0 mm 3 mps 738 mmHg 70%
    14:00 +20°C° 0 mm 3 mps 738 mmHg 71%
    15:00 +19°C° 0 mm 3 mps 738 mmHg 73%
    16:00 +19°C° 0 mm 3 mps 738 mmHg 75%
    17:00 +19°C° 0 mm 3 mps 738 mmHg 76%
    18:00 +18°C° 0 mm 3 mps 738 mmHg 78%
    19:00 +18°C° 0 mm 3 mps 738 mmHg 80%
    20:00 +17°C° 0 mm 3 mps 738 mmHg 81%
    21:00 +16°C° 0 mm 3 mps 739 mmHg 83%
    22:00 +14°C° 0 mm 3 mps 739 mmHg 84%
    23:00 +14°C° 0 mm 3 mps 739 mmHg 85%

    9 June, Tuesday

    Time Temperature Precipitation Wind Pressure Humidity
    00:00 +14°C° 0 mm 3 mps 739 mmHg 85%
    01:00 +14°C° 0 mm 3 mps 739 mmHg 86%
    02:00 +14°C° 0 mm 3 mps 739 mmHg 85%
    03:00 +14°C° 0 mm 3 mps 739 mmHg 85%
    04:00 +14°C° 0 mm 3 mps 739 mmHg 84%
    05:00 +14°C° 0 mm 3 mps 739 mmHg 83%
    06:00 +14°C° 0 mm 4 mps 740 mmHg 82%
    07:00 +15°C° 0 mm 4 mps 740 mmHg 81%
    08:00 +17°C° 0 mm 4 mps 740 mmHg 79%
    09:00 +17°C° 0 mm 4 mps 740 mmHg 77%
    10:00 +18°C° 0 mm 4 mps 740 mmHg 75%
    11:00 +20°C° 0 mm 4 mps 740 mmHg 71%
    12:00 +21°C° 0 mm 3 mps 740 mmHg 67%
    13:00 +22°C° 0 mm 3 mps 740 mmHg 64%
    14:00 +24°C° 0 mm 3 mps 740 mmHg 64%
    15:00 +24°C° 0 mm 3 mps 740 mmHg 64%
    16:00 +24°C° 0 mm 3 mps 740 mmHg 64%
    17:00 +22°C° 0 mm 3 mps 740 mmHg 69%
    18:00 +21°C° 0 mm 3 mps 740 mmHg 74%
    19:00 +20°C° 0 mm 3 mps 740 mmHg 80%
    20:00 +19°C° 0 mm 3 mps 740 mmHg 83%
    21:00 +18°C° 0 mm 3 mps 741 mmHg 86%
    22:00 +17°C° 0 mm 3 mps 741 mmHg 89%
    23:00 +16°C° 0 mm 3 mps 741 mmHg 89%

    10 June, Wednesday

    Time Temperature Precipitation Wind Pressure Humidity
    00:00 +16°C° 0 mm 3 mps 741 mmHg 90%
    01:00 +16°C° 0 mm 3 mps 741 mmHg 90%
    02:00 +16°C° 0 mm 3 mps 741 mmHg 89%
    03:00 +14°C° 0 mm 3 mps 741 mmHg 89%
    04:00 +14°C° 0 mm 3 mps 741 mmHg 89%
    05:00 +16°C° 0 mm 3 mps 741 mmHg 86%
    06:00 +15°C° 0 mm 4 mps 742 mmHg 84%
    07:00 +17°C° 0 mm 4 mps 742 mmHg 81%
    08:00 +18°C° 0 mm 4 mps 742 mmHg 78%
    09:00 +19°C° 0 mm 4 mps 742 mmHg 75%
    10:00 +20°C° 0 mm 4 mps 742 mmHg 72%
    11:00 +20°C° 0.1 mm 4 mps 742 mmHg 71%
    12:00 +21°C° 0.1 mm 4 mps 742 mmHg 69%
    13:00 +21°C° 0.1 mm 4 mps 741 mmHg 68%
    14:00 +22°C° 0 mm 4 mps 741 mmHg 68%
    15:00 +22°C° 0 mm 4 mps 741 mmHg 67%
    16:00 +22°C° 0 mm 4 mps 741 mmHg 67%
    17:00 +21°C° 0 mm 4 mps 741 mmHg 71%
    18:00 +21°C° 0 mm 4 mps 741 mmHg 74%
    19:00 +20°C° 0 mm 3 mps 741 mmHg 77%
    20:00 +19°C° 0 mm 3 mps 742 mmHg 80%
    21:00 +18°C° 0 mm 3 mps 742 mmHg 82%
    22:00 +18°C° 0 mm 3 mps 742 mmHg 85%
    23:00 +17°C° 0 mm 3 mps 742 mmHg 85%
    Show more